Temperature
29 30 30 30 31 31 30 30 30 29 29 29 29 29 28 27 26 26 25 25 25 24 23 23 23 22 22 22 21 21 20 20 19 19 19 19 18 18 18 18 18 18 18 18
27 29 30 30 30 30 30 31 30 30 29 30 29 29 28 27 26 25 25 24 24 23 23 22 22 22 22 22 21 21 20 20 19 19 19 18 18 18 18 18 18 17 17 17
26 28 28 28 29 30 30 30 30 29 29 30 29 28 27 26 25 25 24 23 23 22 22 21 21 21 21 21 21 20 20 19 19 19 18 18 18 18 18 17 18 17 17 17
25 26 25 28 30 30 29 30 30 29 29 29 28 27 26 25 25 24 23 22 22 21 21 21 21 20 20 20 20 20 19 19 19 18 18 18 18 17 17 17 17 17 17 17
24 25 25 28 29 29 28 28 29 28 28 28 27 27 25 24 24 23 22 21 21 20 20 20 20 20 20 19 19 19 19 18 18 18 18 17 17 17 17 17 17 17 17 16
24 23 24 26 28 28 28 26 27 27 26 26 26 25 24 23 22 22 21 20 20 20 19 19 19 19 19 19 19 18 18 18 18 17 17 17 17 17 17 17 17 16 16 16
23 23 24 26 27 27 25 24 25 25 25 24 24 23 22 22 21 21 20 20 19 19 19 19 19 18 18 18 18 18 17 17 17 17 17 17 17 17 16 16 16 16 16 16
23 22 23 24 25 24 23 23 23 23 23 22 22 22 21 21 20 20 19 19 19 19 19 18 18 18 18 17 17 17 17 17 17 17 16 16 16 16 16 16 16 16 16 16
23 22 22 23 23 22 22 22 22 22 22 21 21 21 21 20 19 19 19 18 18 18 18 17 17 17 17 17 16 16 16 16 16 16 16 16 16 16 16 16 16 16 16 16
22 23 23 22 22 22 21 21 21 21 21 21 20 20 20 19 19 18 18 18 17 17 17 17 17 17 16 16 16 16 16 16 16 16 16 16 16 16 16 15 15 15 15 15
21 21 21 21 21 21 20 20 20 20 20 20 20 19 19 18 18 18 17 17 17 17 16 16 16 16 16 16 16 15 15 15 15 15 15 16 16 15 15 15 15 15 15 15
20 20 20 20 20 20 19 19 19 19 19 19 19 18 18 18 18 17 17 17 16 16 16 16 16 16 16 15 15 15 15 15 15 15 15 15 15 15 15 15 15 15 15 15
19 19 19 19 19 19 19 19 19 19 18 18 18 18 17 17 17 17 16 16 16 16 16 15 15 15 15 15 15 15 15 15 15 15 15 15 15 15 15 14 14 14 14 14
18 18 18 18 18 18 18 18 18 18 18 18 17 17 17 17 16 16 16 15 15 15 15 15 15 15 15 15 15 14 14 14 15 15 15 15 15 14 14 14 14 14 14 14
17 17 17 17 17 17 17 17 17 17 17 17 17 17 16 16 16 16 15 15 15 15 15 15 14 14 14 14 14 14 14 14 14 14 14 14 14 14 14 14 14 13 13 13
17 17 16 16 17 17 17 17 17 16 16 16 16 16 15 15 15 15 15 15 15 14 14 14 14 14 14 14 14 14 14 14 14 14 14 14 14 14 13 13 13 13 13 13
16 16 16 16 16 16 16 16 16 15 15 15 15 15 15 15 15 14 14 14 14 14 14 14 13 13 13 13 13 13 13 13 13 13 13 13 13 13 13 13 13 13 13 12
15 15 15 15 15 15 15 15 15 15 15 15 14 14 14 14 14 14 14 14 14 14 13 13 13 13 13 13 13 13 13 13 13 13 13 13 13 13 13 12 12 12 12 12
15 15 15 14 14 14 14 14 14 14 14 14 14 14 14 13 13 13 13 13 13 13 13 13 13 13 13 13 13 12 13 13 13 13 13 13 12 12 12 12 12 11 11 11
14 14 14 14 14 14 13 13 13 13 13 13 13 13 13 13 13 13 13 13 13 13 13 13 13 13 13 12 12 12 12 12 12 12 12 12 12 12 12 11 11 11 11 11
13 13 14 13 13 13 13 13 13 13 13 13 13 12 12 12 12 12 12 12 12 12 12 12 12 12 12 12 12 12 12 12 12 12 12 12 11 11 11 11 11 11 10 10
13 13 13 13 13 13 13 13 13 12 12 12 12 12 12 12 12 12 12 12 12 12 12 12 12 12 12 12 12 12 12 12 12 12 11 11 11 11 11 10 10 10 10 10
12 12 12 12 12 12 12 12 12 12 12 12 12 12 12 12 12 11 11 12 12 12 12 12 12 12 12 12 12 11 11 11 11 11 11 11 10 10 10 10 10 10 9 9
12 12 12 12 12 12 12 12 12 12 12 12 11 11 11 11 11 11 11 11 11 11 11 11 11 11 11 11 11 11 11 11 11 10 10 10 10 10 9 9 9 9 9 9
12 12 12 11 11 11 11 11 11 11 11 11 11 11 11 11 11 11 11 11 11 11 11 11 11 11 10 10 10 10 10 10 10 10 10 9 9 9 9 9 9 8 8 8
12 12 11 11 11 11 11 11 11 11 11 11 11 11 11 11 11 11 10 10 10 10 10 10 10 10 10 10 10 10 10 10 10 9 9 9 9 9 8 8 8 8 8 8
12 12 12 11 11 11 11 11 11 11 11 11 11 11 10 10 10 10 10 10 10 10 10 10 10 9 10 9 9 9 9 9 9 9 9 9 8 8 8 8 7 7 7 7
Wind_Speed
17 18 16 15 15 14 15 15 15 11 10 8 4 2 3 3 2 2 1 1 2 3 3 2 1 2 4 5 5 7 8 8 8 7 6 5 5 5 5 6 7 6 5 6
16 18 18 18 17 17 17 15 15 13 11 7 3 2 2 3 4 2 1 1 1 2 2 2 1 1 2 3 4 5 6 6 6 6 6 6 5 5 5 5 6 6 6 6
15 16 18 19 17 16 14 13 14 14 9 4 2 1 1 3 2 2 1 1 1 1 1 2 2 1 2 2 3 5 6 6 6 6 6 6 6 5 5 6 6 6 7 6
14 15 19 14 12 12 12 12 11 9 5 4 2 1 2 3 3 3 2 2 2 2 0 1 1 1 0 1 2 4 4 5 5 5 5 5 4 5 6 6 6 6 6 6
12 16 17 15 11 12 11 10 8 7 6 6 3 1 2 3 4 4 3 2 3 2 3 1 0 1 1 1 2 3 4 5 5 5 5 5 5 5 5 5 5 6 6 6
13 15 15 11 8 7 8 8 4 5 5 7 7 4 0 3 2 3 3 3 1 1 1 1 1 1 1 1 2 2 2 4 4 4 5 6 6 5 5 5 5 6 6 6
15 17 13 8 10 7 7 4 7 6 7 7 6 5 4 3 3 3 3 3 2 1 1 0 1 1 1 0 1 1 1 2 3 3 4 5 5 4 4 5 5 5 5 5
12 15 11 8 7 5 5 6 7 7 6 7 6 5 4 4 3 2 1 1 1 1 2 1 0 1 1 1 1 0 1 1 1 3 4 4 3 4 5 5 5 5 5 5
6 5 2 5 5 5 6 7 7 7 7 6 6 6 4 3 3 3 2 0 1 0 1 1 1 0 1 1 1 1 1 1 2 3 2 3 5 5 5 5 5 4 4 4
10 8 8 8 8 7 6 7 8 8 8 8 6 6 5 3 1 1 1 1 2 1 1 1 1 1 0 1 1 2 2 2 3 3 3 3 4 4 4 3 4 3 3 3
12 11 11 9 8 8 8 8 9 9 9 8 7 6 5 3 1 1 1 1 2 2 1 1 1 0 1 1 2 3 3 3 4 4 3 3 2 2 2 1 2 2 2 2
10 9 10 10 10 10 9 9 10 10 9 9 7 6 5 4 2 1 1 1 2 2 3 2 2 1 1 2 3 3 3 4 4 3 2 2 2 1 1 1 1 2 2 3
10 10 12 13 12 12 11 11 10 10 9 9 7 5 5 4 3 2 2 2 3 3 3 2 2 2 2 2 2 3 4 4 3 3 2 2 1 1 1 0 0 1 2 3
9 10 13 13 13 12 12 11 10 11 9 7 6 5 6 5 4 3 3 3 4 3 3 3 3 3 2 2 2 3 4 4 3 3 2 2 2 2 2 2 1 1 3 5
12 12 13 13 12 12 11 10 10 9 8 6 5 6 5 5 5 4 4 4 4 4 4 3 4 3 2 2 2 3 4 3 3 3 2 2 2 2 2 2 2 2 1 2
12 12 13 13 13 11 11 12 9 8 7 6 5 5 5 5 5 5 5 4 4 4 3 3 3 2 2 3 3 3 3 4 4 3 2 2 2 2 2 2 2 2 2 2
12 12 12 13 13 12 11 9 8 8 7 6 6 6 6 5 5 5 5 4 4 4 3 2 3 3 3 3 3 4 4 3 4 4 3 2 2 2 2 2 2 2 2 1
12 12 11 11 11 10 10 8 7 7 7 6 5 5 5 5 4 4 4 3 2 2 2 3 3 3 3 3 3 3 4 3 3 2 1 1 1 2 1 2 2 2 1 1
10 10 9 8 9 8 8 7 7 6 5 5 4 4 3 4 4 3 3 3 2 3 3 3 3 4 3 2 2 3 4 4 3 2 1 1 1 2 2 2 2 2 2 1
7 6 6 6 6 5 5 5 4 4 4 4 4 3 2 4 4 3 3 3 3 3 2 2 2 3 3 2 2 4 4 4 3 2 1 2 1 1 2 1 1 2 2 2
5 5 5 4 4 5 5 4 3 3 4 4 3 4 3 3 4 3 3 4 2 2 2 2 2 2 2 2 4 4 3 3 2 2 2 1 1 1 1 1 2 2 1 1
4 5 5 4 3 4 3 3 2 3 3 3 3 4 4 4 4 3 3 3 2 1 2 2 1 1 3 3 3 3 2 2 1 1 1 1 1 1 1 1 1 2 1 1
4 4 4 4 4 4 4 3 3 3 3 3 3 3 3 3 3 3 3 2 2 1 2 1 1 2 3 3 2 2 2 1 1 1 1 1 0 0 1 2 2 2 1 1
4 4 4 4 4 4 3 4 4 3 2 2 1 1 2 2 2 2 2 0 1 1 1 1 1 0 3 2 2 1 1 1 1 0 0 0 0 0 1 1 1 2 1 2
4 4 4 4 4 4 3 3 3 3 3 2 1 1 1 1 1 2 1 0 0 1 1 1 2 2 2 2 1 1 1 1 1 1 1 0 0 0 0 0 1 1 1 1
3 3 3 2 2 2 3 2 2 2 3 3 2 3 2 2 1 1 1 1 1 0 0 0 1 1 1 1 1 0 0 0 0 0 1 1 1 1 1 1 1 1 1 2
2 2 2 2 2 3 3 2 2 2 2 3 3 2 2 2 3 2 2 2 1 1 0 0 1 1 1 1 1 1 1 2 2 2 2 2 2 2 1 1 1 2 2 2
Wind_Direction
272 276 278 276 270 260 256 259 266 264 253 242 232 217 158 138 135 112 68 91 98 103 107 111 145 202 188 176 180 176 175 186 188 190 190 193 198 202 206 212 222 223 223 227
279 276 277 274 270 268 266 264 263 261 259 250 210 202 181 149 144 137 35 353 82 119 127 137 169 248 216 167 176 169 177 186 184 184 187 191 200 208 207 214 226 228 226 229
274 278 279 268 266 266 266 267 271 268 266 260 262 197 144 125 127 154 181 295 0 82 135 138 163 205 238 195 169 171 176 180 182 182 185 192 206 209 215 217 221 226 227 225
273 274 265 269 283 282 274 274 279 283 284 275 258 224 127 123 119 103 65 11 24 6 25 140 160 185 56 186 169 173 171 178 180 178 186 191 201 212 218 220 222 225 226 226
266 265 263 265 273 282 281 276 299 314 319 314 305 280 116 99 96 103 109 73 33 356 329 4 103 134 141 179 178 174 182 183 178 179 190 198 204 212 221 227 229 226 223 223
255 263 266 278 303 318 296 271 352 345 337 332 329 288 39 74 71 108 110 102 85 301 294 354 36 69 158 183 180 190 193 185 178 184 198 211 215 219 228 228 229 229 224 222
250 257 263 296 323 308 267 308 4 0 0 353 357 1 23 48 62 80 102 115 136 168 160 21 27 96 97 72 244 239 217 195 193 203 212 215 217 220 226 233 233 230 228 225
249 258 264 355 337 337 352 358 354 353 358 357 356 1 14 33 49 62 65 136 155 83 82 65 60 113 145 208 231 213 202 221 228 225 236 230 213 224 230 232 235 233 229 231
273 273 333 335 334 345 343 341 340 337 340 342 333 327 346 10 8 11 33 326 309 79 112 141 119 169 228 227 209 208 205 227 254 263 253 237 229 233 231 224 231 235 230 230
280 273 291 301 313 314 323 326 321 320 318 313 315 318 319 321 341 14 359 345 324 298 263 199 198 226 261 266 262 252 235 248 255 252 245 250 236 228 234 233 232 239 250 255
277 283 293 290 305 313 318 311 302 301 302 301 307 305 304 299 302 9 351 332 323 325 314 277 246 234 278 274 261 261 262 259 258 249 240 229 244 251 231 250 237 235 272 270
284 302 299 302 311 310 305 298 295 294 291 292 292 293 294 291 288 281 291 310 308 297 299 297 280 259 246 260 262 263 265 264 258 250 236 222 202 219 32 233 186 195 230 243
290 298 296 297 297 299 297 295 295 295 290 289 288 281 279 274 264 262 263 280 278 272 278 284 282 271 253 252 263 269 273 271 263 263 248 235 229 219 224 350 169 241 230 229
293 292 285 284 289 290 290 290 293 293 291 289 289 283 272 267 260 250 251 259 267 266 271 277 280 270 269 273 279 278 277 266 248 240 230 241 242 243 238 227 221 263 256 228
280 277 278 282 284 282 283 286 285 280 282 287 292 283 276 270 267 258 252 246 251 255 255 262 273 275 282 277 273 273 274 264 245 252 245 232 236 246 257 248 239 227 236 240
278 276 279 282 282 282 282 281 277 277 279 280 283 280 272 272 271 264 256 249 246 253 259 262 268 272 275 278 284 279 269 263 249 247 255 247 239 245 260 263 256 246 237 225
274 274 276 279 279 278 280 283 281 280 277 275 280 285 278 270 262 255 253 252 252 258 259 259 260 263 263 269 268 272 272 259 230 232 240 246 255 261 269 276 269 259 263 256
273 271 272 277 281 279 276 272 273 280 282 271 268 278 278 276 276 275 271 270 268 278 274 267 269 265 250 250 259 271 272 264 255 246 243 236 264 278 284 287 282 275 259 201
280 274 271 273 277 279 277 274 271 272 271 274 280 281 284 287 287 284 281 280 272 265 265 271 273 264 254 249 270 258 264 265 261 257 231 208 235 263 270 266 281 292 279 237
294 288 280 279 282 282 279 278 279 280 282 283 279 277 273 275 276 276 264 260 264 271 282 294 268 264 267 274 266 260 258 260 258 258 238 233 261 278 273 259 277 295 297 288
318 311 296 285 279 278 275 265 258 266 277 280 281 277 269 276 286 291 282 272 273 289 283 264 257 271 275 293 257 256 255 253 253 250 258 259 268 272 289 296 301 300 300 300
336 336 335 334 323 311 303 287 272 267 267 271 272 277 277 275 279 279 274 276 286 310 270 260 266 330 325 293 269 265 249 256 261 258 264 287 269 263 282 282 281 280 277 273
351 352 351 353 345 328 322 319 313 304 290 280 275 276 279 285 289 280 275 273 263 269 277 312 30 34 345 291 276 275 273 279 282 294 297 298 295 299 294 296 291 281 266 262
1 4 357 352 349 346 344 343 338 330 318 310 293 269 265 271 274 276 285 311 122 188 269 92 115 301 276 265 275 269 275 276 281 308 255 267 276 250 255 286 312 311 311 309
357 354 1 1 353 351 355 348 346 344 327 312 302 303 294 314 312 320 326 345 114 223 254 131 186 245 258 279 265 262 276 287 325 349 352 21 273 240 259 303 306 303 322 332
2 355 360 346 336 323 331 346 2 347 332 343 354 357 8 19 24 18 2 4 29 66 1 22 241 251 277 304 315 357 7 22 9 5 54 25 22 23 29 355 328 351 355 354
342 340 334 341 352 350 347 1 3 358 357 346 344 354 10 23 38 40 31 9 18 18 22 8 329 325 355 11 28 35 37 47 47 38 37 49 48 34 30 29 23 21 9 6
Height
1458 1452 1448 1449 1447 1446 1449 1451 1458 1456 1456 1453 1451 1454 1458 1461 1465 1467 1470 1472 1474 1476 1477 1479 1481 1482 1483 1485 1488 1490 1492 1495 1498 1500 1502 1504 1505 1507 1508 1510 1512 1513 1514 1514
1463 1454 1449 1449 1445 1444 1445 1445 1447 1450 1451 1446 1450 1454 1458 1461 1465 1468 1471 1473 1475 1476 1478 1479 1479 1481 1482 1483 1485 1487 1489 1491 1494 1496 1498 1500 1501 1502 1504 1506 1507 1509 1510 1511
1470 1458 1454 1457 1446 1443 1443 1442 1444 1449 1448 1446 1449 1453 1457 1460 1465 1468 1470 1473 1474 1476 1477 1478 1478 1479 1481 1481 1483 1485 1486 1487 1490 1492 1494 1495 1497 1499 1499 1501 1503 1504 1505 1507
1471 1469 1477 1453 1438 1437 1440 1441 1441 1442 1443 1446 1450 1453 1456 1459 1463 1467 1470 1473 1474 1475 1476 1476 1477 1478 1478 1479 1480 1481 1483 1485 1487 1489 1490 1492 1493 1494 1496 1497 1498 1499 1501 1502
1473 1472 1463 1448 1441 1441 1444 1446 1443 1445 1447 1448 1450 1452 1457 1460 1462 1466 1469 1471 1472 1473 1475 1474 1475 1476 1476 1476 1478 1479 1481 1482 1484 1485 1486 1488 1489 1490 1491 1493 1494 1495 1497 1498
1472 1476 1473 1455 1443 1443 1446 1452 1448 1449 1451 1451 1452 1455 1459 1461 1463 1465 1468 1469 1471 1472 1473 1473 1473 1474 1475 1475 1476 1477 1478 1479 1480 1481 1482 1484 1485 1486 1488 1489 1490 1491 1492 1493
1469 1470 1461 1452 1448 1447 1460 1461 1454 1454 1455 1456 1458 1460 1462 1462 1463 1464 1466 1468 1469 1470 1472 1472 1472 1473 1473 1474 1475 1475 1476 1477 1477 1478 1479 1480 1481 1482 1483 1484 1485 1487 1487 1488
1465 1469 1467 1456 1453 1457 1460 1458 1458 1458 1459 1460 1461 1462 1462 1463 1463 1464 1465 1466 1468 1469 1469 1470 1470 1470 1471 1472 1473 1473 1473 1474 1474 1475 1476 1477 1478 1478 1479 1480 1481 1482 1483 1484
1461 1465 1461 1460 1461 1461 1461 1461 1461 1461 1462 1462 1462 1463 1463 1463 1463 1463 1463 1465 1467 1468 1468 1468 1468 1469 1470 1471 1471 1471 1470 1471 1471 1472 1472 1472 1473 1474 1476 1477 1478 1479 1479 1479
1460 1458 1459 1460 1460 1461 1462 1463 1463 1463 1463 1463 1463 1463 1463 1463 1463 1463 1464 1465 1465 1466 1466 1466 1467 1467 1468 1469 1469 1468 1468 1468 1468 1469 1469 1469 1470 1471 1472 1473 1474 1475 1476 1476
1460 1460 1460 1460 1461 1461 1461 1462 1462 1463 1463 1463 1463 1463 1462 1463 1462 1462 1463 1463 1464 1465 1465 1465 1466 1466 1466 1467 1466 1466 1466 1465 1465 1466 1466 1466 1466 1467 1469 1469 1471 1471 1472 1472
1461 1461 1462 1461 1461 1461 1461 1461 1461 1461 1461 1461 1461 1461 1461 1462 1461 1461 1462 1462 1463 1463 1464 1464 1464 1464 1464 1464 1464 1463 1462 1462 1462 1463 1463 1464 1464 1464 1465 1466 1467 1468 1468 1468
1461 1462 1462 1461 1461 1461 1460 1459 1459 1459 1459 1458 1459 1459 1459 1459 1459 1459 1460 1460 1460 1461 1462 1462 1462 1461 1461 1461 1461 1460 1460 1459 1459 1460 1460 1461 1461 1461 1461 1462 1463 1463 1463 1463
1460 1461 1460 1460 1459 1459 1458 1457 1457 1456 1456 1456 1456 1456 1456 1457 1456 1457 1457 1458 1458 1459 1459 1459 1459 1459 1459 1459 1458 1457 1457 1456 1457 1457 1457 1457 1458 1459 1459 1458 1458 1458 1459 1459
1458 1458 1458 1457 1457 1456 1455 1454 1454 1453 1453 1453 1453 1453 1453 1453 1454 1454 1454 1455 1455 1455 1456 1456 1457 1457 1457 1456 1455 1454 1454 1454 1454 1454 1454 1455 1455 1456 1456 1456 1455 1455 1455 1455
1454 1454 1454 1453 1452 1452 1451 1451 1450 1450 1450 1450 1450 1450 1450 1450 1451 1451 1452 1452 1452 1453 1453 1453 1453 1454 1453 1453 1452 1452 1451 1451 1450 1450 1451 1451 1452 1453 1453 1452 1452 1452 1452 1451
1450 1449 1449 1449 1449 1448 1447 1447 1447 1447 1447 1447 1447 1447 1447 1447 1448 1449 1449 1449 1449 1450 1450 1450 1450 1450 1450 1450 1449 1448 1448 1448 1448 1447 1448 1448 1449 1449 1449 1449 1448 1448 1448 1448
1445 1445 1445 1445 1445 1444 1444 1444 1444 1444 1444 1444 1444 1444 1444 1444 1444 1445 1445 1445 1446 1446 1446 1447 1447 1446 1446 1447 1447 1446 1446 1446 1446 1446 1445 1446 1446 1447 1446 1446 1445 1445 1444 1445
1440 1439 1439 1440 1440 1440 1440 1440 1441 1441 1441 1441 1441 1441 1441 1442 1442 1442 1443 1443 1442 1443 1443 1443 1443 1443 1443 1443 1444 1444 1444 1444 1444 1444 1444 1444 1444 1444 1443 1443 1442 1442 1442 1441
1437 1436 1436 1436 1436 1436 1437 1437 1438 1438 1438 1438 1438 1438 1439 1440 1440 1440 1440 1440 1440 1440 1440 1440 1440 1440 1440 1441 1441 1442 1442 1442 1441 1442 1441 1442 1441 1441 1441 1440 1440 1439 1438 1438
1436 1435 1434 1434 1434 1435 1435 1435 1435 1435 1436 1436 1436 1436 1436 1437 1437 1437 1437 1437 1437 1437 1437 1437 1438 1438 1438 1438 1438 1439 1439 1439 1439 1439 1439 1439 1439 1438 1438 1438 1437 1436 1436 1436
1436 1435 1434 1434 1433 1433 1433 1433 1433 1433 1433 1433 1433 1433 1434 1434 1434 1434 1434 1434 1434 1434 1435 1435 1435 1435 1435 1435 1436 1436 1436 1436 1436 1436 1436 1436 1436 1436 1436 1435 1435 1434 1434 1433
1436 1435 1434 1433 1433 1432 1432 1431 1431 1431 1431 1431 1431 1431 1431 1432 1432 1432 1432 1432 1432 1432 1432 1432 1432 1432 1432 1432 1433 1433 1433 1433 1433 1433 1434 1434 1434 1433 1433 1433 1433 1432 1432 1432
1437 1436 1435 1434 1432 1431 1431 1431 1430 1430 1430 1429 1429 1429 1429 1429 1429 1429 1429 1429 1429 1429 1429 1429 1429 1429 1430 1430 1430 1431 1431 1431 1431 1431 1431 1431 1431 1431 1431 1430 1430 1430 1430 1429
1437 1436 1434 1433 1432 1431 1431 1430 1430 1429 1429 1429 1428 1428 1428 1427 1427 1427 1427 1427 1427 1427 1427 1427 1427 1427 1428 1428 1428 1428 1428 1428 1428 1428 1429 1429 1429 1429 1428 1428 1428 1428 1427 1427
1438 1436 1435 1434 1433 1432 1431 1430 1430 1429 1428 1428 1427 1427 1427 1426 1426 1426 1425 1425 1425 1425 1425 1425 1426 1426 1426 1426 1426 1426 1427 1427 1427 1427 1427 1427 1426 1426 1426 1426 1425 1425 1425 1424
1438 1436 1435 1434 1433 1432 1431 1430 1430 1429 1428 1428 1427 1426 1426 1426 1425 1425 1425 1424 1424 1424 1424 1425 1425 1425 1425 1425 1425 1425 1426 1425 1425 1425 1425 1425 1424 1424 1424 1424 1423 1423 1422 1422